RH
36 36 37 37 38 38 38 37 37 38 39 41 42 44 44 44 43 44 45 46 47 47 48 50 50 50 52 53 54 56 58 58 59 60 61 61 63 63 62 60 59 58 56 55 56 56 55 54 53 53 52 52 52 51 51 50 49 48 47 46 46 46 45 45 44 42 41 38 36 35 33 32 31 30 30 29 28 27 27 26 26 25 25 25 25
39 40 41 41 42 42 42 41 40 40 41 42 44 46 48 48 46 46 46 48 50 50 50 52 52 52 52 53 55 57 59 60 60 61 63 64 66 65 65 66 65 62 59 58 58 58 58 57 56 56 55 54 54 53 52 51 50 49 47 46 45 44 43 41 40 38 37 35 34 34 33 32 32 31 31 30 30 29 28 27 26 25 25 25 25
42 43 44 45 46 45 45 44 43 43 42 43 45 46 49 50 49 47 47 48 50 51 52 53 53 53 54 54 55 58 60 62 63 65 66 66 67 68 68 69 70 68 64 61 60 60 60 60 60 59 58 57 56 55 54 54 53 50 48 46 44 42 41 39 38 37 36 36 35 34 34 34 33 33 32 30 30 29 28 28 27 26 26 26 26
44 45 47 48 49 48 48 47 47 46 45 44 44 46 48 50 50 50 48 48 49 50 52 53 53 54 55 56 58 61 65 67 69 71 71 70 69 70 70 71 73 73 69 64 63 63 62 63 63 63 62 61 59 58 57 56 55 53 49 47 45 43 41 40 39 38 38 38 36 35 35 35 35 34 33 31 30 30 29 29 29 29 28 27 27
46 48 48 49 50 50 49 49 49 48 46 44 44 44 46 48 50 51 50 48 48 48 49 51 53 56 58 59 62 66 71 73 74 75 74 73 72 72 72 73 75 76 74 69 66 66 66 66 67 67 66 64 63 61 60 58 58 56 53 49 47 45 43 42 40 39 39 39 39 38 37 37 36 35 33 32 32 33 33 32 32 31 30 29 28
48 49 49 50 50 51 51 50 49 48 45 43 42 42 44 46 49 51 51 50 49 48 48 50 53 56 58 61 65 71 75 76 77 78 78 77 75 74 75 76 77 78 78 75 72 70 70 70 71 71 70 69 67 65 63 61 61 60 57 53 50 48 46 44 43 42 40 40 41 40 40 39 39 37 35 34 35 35 36 35 34 33 31 30 28
49 49 50 51 51 52 51 50 48 46 45 44 44 43 44 45 47 51 53 52 52 52 51 52 54 56 59 62 67 73 77 79 80 81 81 80 79 77 77 78 80 81 81 80 78 75 75 75 75 75 74 73 72 69 66 64 63 62 60 58 54 52 50 47 45 44 42 42 42 43 42 41 41 40 38 38 37 36 36 35 34 32 30 28 25
50 51 52 52 52 52 50 49 47 47 48 48 47 46 44 45 47 50 53 54 54 54 56 56 57 59 62 65 69 75 79 83 84 84 84 83 82 80 80 80 83 84 84 84 83 81 79 79 79 79 78 77 76 74 71 67 65 63 62 60 58 55 52 50 47 46 44 44 44 44 44 42 42 42 41 40 39 38 36 34 32 30 28 26 23
52 53 53 53 53 52 50 49 49 50 51 50 49 47 45 45 47 50 54 56 56 57 59 60 62 64 65 68 72 79 84 86 86 87 87 86 85 84 83 84 85 86 87 87 87 86 84 83 83 83 82 81 80 79 76 72 68 65 63 62 61 57 54 51 49 48 47 46 46 46 45 43 42 43 42 41 40 38 36 33 30 28 27 27 26
57 56 55 55 55 54 53 52 53 53 52 51 50 48 46 46 48 51 55 58 59 60 61 64 66 68 70 72 77 83 87 88 88 89 89 88 88 87 86 86 86 87 89 89 89 89 89 88 87 86 85 84 83 82 79 76 72 69 65 63 62 59 56 53 51 50 49 49 49 49 48 45 43 42 42 41 39 38 36 33 30 29 29 28 28
61 59 57 57 57 56 55 55 56 55 53 53 52 50 48 48 49 52 56 59 61 62 63 66 69 71 74 76 81 86 88 89 90 91 91 90 90 89 89 88 88 89 90 91 92 93 93 91 90 89 89 88 86 85 83 80 76 73 69 65 63 62 59 56 55 53 53 52 52 52 52 49 45 42 42 41 40 39 37 33 31 31 31 30 29
61 60 58 58 58 57 57 58 57 55 54 54 53 52 51 51 52 54 57 60 62 63 64 66 70 73 76 78 81 86 89 91 92 93 93 93 92 91 91 90 90 91 92 93 95 96 95 95 93 91 91 90 90 88 86 84 81 78 74 70 66 64 63 61 59 57 56 56 55 54 54 53 50 45 42 42 41 40 39 35 33 33 33 32 31
62 61 60 60 60 59 59 60 58 55 55 55 55 54 53 53 54 55 57 61 64 64 64 66 70 74 77 78 80 83 88 91 93 94 95 95 94 93 92 93 93 94 94 95 96 97 97 97 96 94 93 93 92 92 90 89 86 84 81 77 73 70 67 65 64 62 60 59 58 57 56 56 55 50 45 43 43 43 41 39 36 36 36 35 34
65 62 61 62 62 61 61 60 57 55 55 56 56 56 56 55 55 55 57 61 64 65 65 67 70 75 78 79 79 82 87 91 94 96 96 96 96 94 94 95 96 96 96 96 96 97 98 98 98 97 96 95 94 94 93 93 92 90 87 84 81 78 74 71 69 67 65 63 62 60 59 58 59 57 51 47 46 45 43 40 39 38 38 38 37
67 64 64 64 64 63 62 59 56 55 56 58 58 58 58 56 54 54 56 59 62 64 66 68 70 74 77 78 79 82 87 91 93 96 97 96 97 96 95 97 98 97 97 97 97 98 99 99 99 98 98 97 96 95 95 95 94 94 93 91 88 85 81 78 75 72 70 67 65 63 62 61 62 61 58 55 53 50 46 43 41 39 39 39 38
69 67 66 66 66 64 61 58 56 57 58 60 60 59 57 55 53 53 53 57 60 63 67 70 72 74 77 80 80 82 87 90 93 95 97 97 97 97 97 98 99 99 98 98 98 99 99 100 99 99 100 99 99 98 98 98 97 96 96 95 94 90 86 83 79 76 74 72 69 68 66 65 64 64 63 61 59 56 51 47 45 43 42 41 38
71 70 69 69 67 65 61 58 58 59 61 62 61 60 58 56 54 54 54 57 60 64 67 71 73 76 79 82 82 82 87 90 92 94 97 97 97 97 98 98 100 100 99 99 100 100 100 100 100 100 100 100 100 100 99 99 99 98 98 98 96 94 90 87 85 80 76 74 73 72 71 69 67 67 66 64 62 60 57 53 50 48 46 43 38
73 72 72 71 68 65 62 60 61 63 65 64 63 62 60 58 57 57 57 58 61 65 68 72 76 79 81 83 84 84 87 91 93 95 97 97 98 97 98 98 100 101 100 100 100 100 100 100 100 100 100 100 100 101 100 100 100 100 100 99 98 96 91 89 88 85 81 78 77 75 74 73 72 71 70 69 67 65 61 57 55 52 48 45 38
74 74 74 72 70 66 64 64 66 68 68 67 66 64 63 61 61 61 62 63 65 67 69 71 76 81 84 85 87 87 89 93 96 97 97 98 98 98 98 99 100 100 100 100 100 100 100 100 100 100 100 100 100 100 100 101 100 100 101 100 99 97 93 91 91 88 86 83 81 79 78 77 76 75 74 73 71 69 65 61 58 53 48 44 39
76 76 75 73 70 68 67 69 71 72 71 69 68 67 65 64 65 66 68 69 70 71 72 73 76 82 86 88 90 91 91 94 97 98 99 99 99 99 99 100 100 100 100 100 100 100 100 100 100 100 100 100 100 100 100 101 100 101 101 100 100 98 96 96 94 90 89 88 86 85 83 81 80 79 78 76 73 70 67 64 60 54 47 42 39
79 78 76 74 72 72 73 74 75 75 74 71 70 69 67 67 69 71 73 75 76 77 77 77 79 83 88 92 93 94 95 95 97 99 100 99 99 100 100 100 101 101 100 100 100 100 100 100 100 100 100 100 100 100 100 100 100 100 100 100 100 99 98 99 98 95 93 92 91 90 88 86 85 83 81 79 76 72 70 67 62 54 47 41 38
81 80 78 75 75 76 77 78 78 77 75 72 70 69 70 72 74 76 78 80 80 81 81 82 83 85 90 94 97 98 98 98 98 99 100 100 100 100 101 101 101 100 100 100 100 100 100 101 100 100 100 100 100 100 100 100 100 100 100 100 100 99 99 99 99 98 97 96 94 93 92 92 91 88 85 82 79 75 72 68 62 54 46 40 38
82 80 78 77 78 79 80 80 79 77 74 71 70 70 71 74 78 80 82 83 83 83 84 84 85 87 91 95 98 99 99 99 98 98 99 100 101 101 101 101 100 100 100 100 100 100 100 100 100 100 100 100 100 100 100 100 100 100 100 100 100 100 100 99 99 99 99 98 96 95 95 96 94 92 89 86 82 77 73 68 61 52 45 40 39
81 79 79 79 79 81 82 81 79 76 73 71 71 72 74 78 81 83 84 84 84 84 84 84 86 88 91 94 97 99 99 98 98 98 99 100 101 101 101 101 101 100 100 100 100 100 100 100 100 100 100 100 100 100 100 100 100 100 100 100 100 101 101 100 100 99 99 99 98 97 97 98 96 93 91 88 83 78 74 68 60 51 44 41 44
80 80 81 81 82 83 83 81 77 74 72 72 72 75 77 80 83 85 85 84 84 83 83 85 86 88 90 92 95 96 97 97 98 98 99 100 100 101 101 102 101 101 100 100 100 100 100 100 100 100 100 100 100 100 100 100 100 100 99 99 100 101 101 101 101 100 99 99 98 98 99 99 97 94 91 88 84 79 73 67 59 50 43 42 48
81 82 83 83 83 82 81 78 75 73 73 74 76 78 80 82 83 84 83 83 83 82 82 83 84 85 86 87 88 89 91 92 93 94 95 97 98 98 99 99 99 100 100 100 100 100 100 100 100 100 100 100 100 100 100 100 100 100 99 99 99 100 100 101 101 101 100 99 99 99 100 99 97 94 91 87 83 78 73 66 58 50 44 45 51
82 83 83 83 83 81 78 75 73 73 75 78 80 82 82 82 82 81 81 80 79 78 78 78 78 78 77 78 79 80 83 86 88 89 91 92 93 94 94 95 95 96 97 97 98 99 100 100 100 100 100 101 101 101 100 100 101 101 100 100 100 100 100 101 101 101 100 100 99 99 100 99 97 94 91 87 82 78 73 64 55 50 46 47 51
84 84 83 82 80 78 75 73 72 74 77 80 82 82 80 79 78 77 76 75 74 74 72 71 70 69 68 68 68 69 72 75 78 81 83 85 86 87 87 87 88 89 90 91 92 94 96 98 99 99 100 100 101 101 101 101 101 101 101 100 100 100 101 101 101 101 101 101 100 99 98 98 97 95 92 87 81 77 71 61 53 47 44 46 48
85 84 83 81 78 76 74 73 74 76 79 81 80 78 76 74 73 72 72 71 70 69 68 66 65 63 61 60 59 59 59 61 64 67 70 72 74 75 76 76 77 78 79 80 81 83 86 88 90 91 93 94 96 98 99 100 101 102 102 101 100 101 101 100 101 101 101 100 99 98 98 97 96 95 92 86 81 76 69 60 51 45 43 46 46
85 84 81 79 77 75 75 75 77 78 79 78 76 73 70 69 69 68 68 67 66 65 64 62 61 59 56 54 53 52 51 51 53 55 58 61 63 66 68 68 69 70 70 70 70 71 73 75 76 78 78 80 82 84 86 88 91 94 96 98 98 98 98 99 99 100 100 100 99 98 98 97 96 94 90 84 80 75 67 57 48 42 43 46 43
84 82 79 77 76 75 76 78 78 78 76 73 70 67 66 66 66 65 64 63 62 60 59 57 54 53 51 49 48 48 49 49 50 51 53 55 57 60 62 63 64 65 65 65 65 65 66 66 66 66 67 67 68 69 70 72 75 79 84 87 89 89 89 90 91 93 96 99 99 98 99 97 95 92 87 82 79 74 66 55 46 43 45 45 40
81 79 78 77 76 77 77 77 77 74 71 68 65 63 62 62 62 61 59 57 56 53 51 49 47 46 46 45 45 45 45 46 47 48 49 51 52 53 55 57 58 59 60 61 61 61 61 62 62 61 62 62 62 63 63 64 67 71 76 80 82 83 83 83 84 86 90 95 99 99 98 96 94 89 84 81 77 73 66 55 47 46 48 44 40
79 78 77 77 77 77 77 75 73 70 67 65 63 61 59 58 57 56 53 49 47 45 44 43 43 42 42 42 41 41 40 41 41 42 43 44 45 46 48 52 54 56 57 59 61 61 61 61 61 61 61 61 62 62 63 63 66 69 73 77 80 80 80 80 82 83 86 93 99 99 97 95 91 86 82 80 77 71 63 54 49 50 48 42 42
79 78 77 77 77 77 75 72 69 67 64 62 60 58 57 55 53 50 46 43 41 40 40 39 39 38 38 38 37 37 36 36 36 37 38 40 42 44 47 51 54 56 58 60 62 63 64 64 64 65 65 65 65 65 65 66 66 69 73 77 79 80 80 80 81 81 85 92 99 99 95 92 87 84 82 80 76 68 59 53 52 51 45 41 48
78 78 77 77 76 74 71 69 66 64 62 59 57 56 54 52 49 45 43 40 39 37 35 34 34 34 33 33 33 32 32 32 33 35 37 39 42 45 48 51 54 57 59 60 61 63 64 65 67 67 68 68 68 67 67 66 66 68 72 76 80 81 80 80 81 83 85 91 97 97 92 89 86 84 83 81 74 65 57 54 53 48 43 46 56
78 77 77 75 73 70 68 66 64 62 60 58 56 54 51 48 45 42 40 39 37 35 33 32 30 30 30 30 30 29 30 32 34 36 39 42 44 47 49 52 54 56 58 58 59 61 62 63 65 67 69 69 69 68 67 66 65 67 71 76 81 82 80 81 83 83 84 90 95 94 90 88 86 84 83 80 71 62 58 57 52 45 46 56 62
77 76 73 72 70 68 67 66 64 62 60 58 55 52 48 45 42 40 38 36 34 33 31 29 27 27 28 29 30 32 34 38 40 43 45 47 49 50 52 53 54 55 56 57 57 58 60 62 64 65 66 66 66 66 65 64 63 65 70 77 82 82 81 82 83 82 83 89 92 91 89 87 85 85 83 77 68 62 59 54 47 47 56 63 59
74 72 71 70 70 68 67 66 64 62 59 55 52 48 45 44 41 39 37 35 33 31 29 28 28 28 30 32 35 38 41 43 46 47 49 51 54 55 56 56 55 55 55 55 56 57 59 62 62 62 62 61 61 62 62 62 63 64 69 76 82 83 82 82 81 81 83 86 89 89 88 87 87 86 81 74 68 64 57 49 48 56 64 62 51
68 68 68 68 67 66 65 63 60 57 54 51 49 46 45 43 40 38 36 34 31 30 29 30 32 35 37 39 42 43 44 46 49 52 54 57 60 62 62 60 59 57 56 57 57 58 60 61 61 60 59 59 59 59 59 60 61 63 67 74 80 82 82 81 80 80 83 87 89 88 88 89 89 84 77 72 68 60 50 49 57 65 64 55 45
64 64 65 64 63 62 59 56 53 50 48 47 46 45 43 41 39 37 35 33 32 33 34 35 38 41 43 45 46 46 47 50 53 57 61 63 66 67 65 63 61 60 59 59 57 58 60 62 61 60 59 59 59 60 61 61 63 64 67 72 78 80 80 79 78 80 84 88 89 89 90 90 86 81 77 72 63 52 51 60 68 66 57 48 42
63 63 63 62 60 57 53 50 48 46 45 45 45 44 42 40 38 36 35 36 37 38 38 40 44 47 49 50 50 50 51 55 59 63 67 70 70 69 66 64 63 62 61 59 58 61 63 63 61 60 60 61 62 63 64 65 66 67 70 74 78 79 78 76 77 80 84 87 89 89 88 86 84 82 76 64 52 52 62 70 68 59 49 44 45
63 62 61 57 54 51 48 47 46 46 45 45 44 43 41 39 38 38 39 41 42 42 42 45 48 51 53 53 53 53 56 60 65 70 73 74 71 68 65 65 63 61 60 60 62 64 65 64 64 65 66 66 67 67 67 68 70 72 76 79 80 80 79 77 78 80 82 84 85 86 87 88 86 78 64 53 54 65 73 70 61 51 44 45 56
60 57 54 51 49 48 47 46 46 45 44 43 43 41 40 40 41 43 45 46 46 47 47 49 52 54 56 56 56 57 61 67 73 76 77 74 70 68 66 64 61 61 62 65 65 66 66 67 70 72 72 72 71 70 70 71 73 76 79 82 83 83 82 80 80 82 84 85 88 90 91 87 75 61 54 58 70 76 71 61 52 45 45 56 73
54 51 49 47 47 46 45 44 43 43 42 42 41 42 42 44 47 49 50 50 51 51 52 54 55 56 57 58 59 62 68 75 79 79 76 73 71 68 65 62 61 64 67 68 68 70 72 74 76 77 76 75 75 74 74 74 74 76 79 82 84 85 85 85 87 89 91 93 94 91 83 70 58 55 64 76 79 71 59 51 45 46 55 71 84
47 45 45 44 44 43 42 41 41 41 41 42 43 45 48 51 53 54 54 55 56 57 57 58 57 58 60 62 64 69 76 81 80 77 74 73 71 67 64 63 66 68 70 71 73 76 79 80 80 80 80 80 79 79 78 77 77 78 79 80 81 83 86 89 92 93 93 92 87 76 64 57 60 72 82 82 71 58 49 46 48 56 70 81 88
41 41 41 41 41 40 40 40 40 41 42 45 48 52 56 58 59 59 60 60 61 62 62 62 61 62 64 66 70 76 82 82 77 74 74 73 69 65 66 68 71 72 73 76 79 81 82 82 82 83 83 84 83 83 82 81 80 80 79 80 80 82 85 88 89 89 85 78 68 60 59 67 79 86 81 69 56 49 46 49 58 71 81 86 90
39 39 40 39 39 40 41 41 43 45 48 52 56 60 63 64 65 66 67 67 67 68 68 67 66 66 67 71 77 83 83 79 75 74 73 69 66 67 70 73 74 76 79 82 84 84 84 84 85 85 85 85 85 85 84 83 81 81 80 80 80 81 83 84 82 77 71 64 62 66 76 84 86 78 65 53 48 48 52 60 71 81 86 88 90
42 43 43 43 43 44 45 47 49 53 58 62 66 69 71 73 74 75 76 76 75 75 74 73 71 69 70 76 83 85 81 76 75 73 69 66 67 71 74 76 79 82 84 86 86 86 86 86 85 85 85 85 85 85 84 84 83 82 80 78 78 79 78 75 70 66 64 68 75 83 88 84 74 61 52 48 50 55 62 71 81 88 91 91 91
48 50 51 51 52 53 55 58 62 66 71 74 77 80 82 83 84 84 84 82 81 80 78 76 73 72 74 79 82 80 77 76 73 68 66 68 72 75 77 80 84 87 87 87 87 87 86 85 85 85 85 85 84 84 85 85 84 82 81 79 77 74 71 68 68 71 77 84 89 88 81 70 58 50 48 52 58 65 73 82 88 92 93 93 93
58 61 63 65 66 69 71 73 76 79 81 83 85 87 88 89 89 88 87 85 83 81 79 76 74 74 77 78 78 76 75 72 67 64 68 73 75 76 80 85 87 88 88 88 88 86 85 85 85 85 84 85 85 85 85 85 84 83 81 77 73 70 71 75 80 86 89 90 86 77 65 55 48 48 54 62 69 75 82 88 91 93 93 94 96
69 72 74 76 77 79 81 82 83 84 85 86 89 90 92 92 92 91 89 86 84 81 78 75 75 76 77 77 77 75 71 65 63 67 73 76 77 80 85 87 87 87 88 88 87 86 85 85 85 84 85 85 86 85 85 84 82 79 76 74 75 78 83 88 90 91 89 82 72 61 52 48 49 56 65 72 77 82 87 90 91 92 93 95 97